Regional Weather Roundup
Issued by NWS Kansas City/Pleasant Hill, MO

Home | Current Version | Previous Version | Graphics & Text | Print | Product List | Glossary Off
Versions: 1 2 3 4 5 6 7 8 9 10 11 12 13 14 15 16 17 18 19 20 21 22 23 24 25 26 27 28 29 30 31 32 33 34 35 36 37 38 39 40 41 42 43 44 45 46 47 48 49 50

000
ASUS43 KEAX 201810
RWREAX

WEATHER ROUNDUP FOR EASTERN KANSAS AND NORTHWEST MISSOURI
NATIONAL WEATHER SERVICE KANSAS CITY/PLEASANT HILL MO
100 PM CDT MON OCT 20 2014

KSZ040-057-103>105-MOZ028-029-037-043-201900-
...KANSAS CITY METROPOLITAN AREA...

CITY           SKY/WX    TMP DP  RH WIND       PRES   REMARKS
K.C. INTL      SUNNY     70  47  43 NE6       30.07F
6HR MIN TEMP:  50; 6HR MAX TEMP:  70;

K.C. DOWNTOWN  SUNNY     72  48  42 NE7       30.05F
6HR MIN TEMP:  52; 6HR MAX TEMP:  72;

LEES SUMMIT    SUNNY     70  48  45 N10       30.06F
6HR MIN TEMP:  51; 6HR MAX TEMP:  70;

OLATHE - IXD   SUNNY     70  51  51 NE8       30.07F
6HR MIN TEMP:  48; 6HR MAX TEMP:  70;

OLATHE - OJC   SUNNY     71  51  49 NE8       30.05F
6HR MIN TEMP:  52; 6HR MAX TEMP:  71;

LAWRENCE       SUNNY     71  49  45 VRB7      30.06F

$$

MOZ001>008-011>017-020>025-030>033-038>040-044>046-053-054-201900-
...NORTHERN AND CENTRAL MISSOURI...

CITY           SKY/WX    TMP DP  RH WIND       PRES   REMARKS
ST. JOSEPH     SUNNY     69  44  40 CALM      30.07F
6HR MIN TEMP:  39; 6HR MAX TEMP:  70;

MOSBY          CLEAR     70  43  37 N3        30.05F
WHITEMAN AFB   SUNNY     70  49  47 NE8       30.04F
6HR MIN TEMP:  49; 6HR MAX TEMP:  70;

CLINTON        SUNNY     70  57  64 NW6       30.05F
SEDALIA        SUNNY     72  49  44 NW5       30.05F
6HR MIN TEMP:  54; 6HR MAX TEMP:  72;

WARSAW         NOT AVBL
MARSHALL       SUNNY     72  46  40 N3        30.04F
CHILLICOTHE      N/A     69  45  41 VRB6      30.05F
6HR MIN TEMP:  47; 6HR MAX TEMP:  70;

MOBERLY        SUNNY     72  41  33 N7        30.03F HAZE
KIRKSVILLE     SUNNY     68  45  43 N13       30.03F
6HR MIN TEMP:  49; 6HR MAX TEMP:  68;


$$

MOZ041-047>049-056>058-063>065-088>090-097-201900-
...EASTERN AND SOUTHERN MISSOURI...

CITY           SKY/WX    TMP DP  RH WIND       PRES   REMARKS
ST. LOUIS INTL SUNNY     72  51  47 NW14      29.97F
6HR MIN TEMP:  55; 6HR MAX TEMP:  72;

SPIRIT OF STL  SUNNY     72  50  45 NW8       29.96F
COLUMBIA       SUNNY     69  49  48 NW8       30.02F
JEFFERSON CITY SUNNY     72  49  44 NW10      30.01F
MEXICO         SUNNY     72  50  46 N6        30.01F
HANNIBAL       SUNNY     70  37  30 N10       30.00F
ROLLA          SUNNY     69  55  60 W12       30.00F
LEBANON        SUNNY     72  55  56 W7        30.03F
OSAGE BEACH    SUNNY     70  54  56 NW7       30.03F
SPRINGFIELD    SUNNY     69  55  60 MISG      30.05F
BRANSON        MOSUNNY   72  57  60 W6        30.07F
NEVADA         SUNNY     73  57  56 CALM      30.05F
JOPLIN         SUNNY     70  58  65 NW8       30.07F
WEST PLAINS    PTSUNNY  N/A N/A N/A W10       30.05F

$$

IAZ060-094-KSZ022-034>040-054-083-096-NEZ052-066-093-201900-
...KANSAS...SOUTHEAST NEBRASKA AND IOWA...

CITY           SKY/WX    TMP DP  RH WIND       PRES   REMARKS
TOPEKA         SUNNY     71  53  52 N5        30.07F
6HR MIN TEMP:  45; 6HR MAX TEMP:  72;

MANHATTAN      SUNNY     73  52  47 VRB3      30.08F
EMPORIA        SUNNY     74  54  49 N8        30.06F
CHANUTE        SUNNY     74  57  55 N5        30.06F
WICHITA        SUNNY     77  54  44 E9        30.07F
OMAHA          SUNNY     69  40  34 CALM      30.09F
LINCOLN        SUNNY     69  42  37 VRB5      30.11F
FALLS CITY     SUNNY     72  43  35 VRB6      30.07F
LAMONI         SUNNY     67  45  45 NW12      30.06S
DES MOINES     SUNNY     68  41  37 NW13      30.03F

$$




USA.gov is the U.S. government's official web portal to all federal, state and local government web resources and services.